Zurück zum Katalog

COSMOS 1365 FUEL CORE

AktivLEO
NORAD 13594·DEBRIS·🇷🇺 Russia

Gestartet May 14, 1982 von Baikonur Cosmodrome

Loading…

Nächste Überflüge (nächste 24 Stunden)

TLE

AktuellSource: Space-Track

Epoche: Sep 14, 2026, 11:26 UTC

1 13594U 82043D   26257.47699524 -.00000101  00000-0 -80846-5 0  9992
2 13594  65.0675  73.0167 0063044 308.8424  50.7025 13.93201128258311

Verfolge COSMOS 1365 FUEL CORE in Echtzeit mit AllMySat

Download on the App Store